{"data":{"norad_id":53708,"intl_designator":"2022-107J","name":"STARLINK-4694","alt_names":[],"object_type":"PAYLOAD","status":"ACTIVE","operator":null,"country":"US","launch_date":"2022-09-05","launch_site_code":"AFETR","launch_vehicle":null,"mission":null,"orbit_class":"UNKNOWN","rcs_meters":null,"size_class":null,"mass_kg":null,"dimensions":null,"purposes":["comms"],"wikipedia_slug":null,"has_3d_model":false,"image_url":null,"decayed_at":null,"tle_current":{"epoch":"2026-05-24T23:31:13.360800Z","epoch_age_seconds":80327,"freshness":"FRESH","line1":"1 53708U 22107J   26144.98001575  .00002802  00000+0  19429-3 0  9996","line2":"2 53708  53.2139 246.5041 0002193  85.3715 274.7527 15.08797870206581","mean_motion":15.0879787,"eccentricity":0.0002193,"inclination_deg":53.2139,"raan_deg":246.5041,"arg_perigee_deg":85.3715,"mean_anomaly_deg":274.7527,"bstar":0.00019429,"rev_number":20658,"period_min":95.440219570299,"perigee_km":538.35504710598,"apogee_km":541.38928592641,"semimajor_km":6918.0091665162,"source":"CELESTRAK","updated_at":"2026-05-25T13:38:17.533168Z"}}}